Location: Sunny Point
(33.0946°N, 85.0574°W)
Time: 08:19:09
(UTC+00:00)

Envisat - Pass Details

Date: 21 May 2024
Orbit: 762 x 764 km, 98.3° (Epoch: 16 June)

Event Time Altitude Azimuth Distance (km) Brightness Sun altitude
Rises 09:30:59 0° 2° (N) 3,230 6.8 -12.7°
Reaches altitude 10° 09:33:25 10° 354° (N) 2,300 5.9 -12.3°
Maximum altitude 09:38:03 37° 288° (WNW) 1,169 3.7 -11.5°
Enters shadow 09:41:58 14° 226° (SW) 2,040 4.6 -10.8°
